This is the latest recevied weather packets stored in our database for station/object KQ4PPF. If no packets are shown the sender has not sent any weather packets the latest 10 day(s).
| Time | Temp. | Humidity | Pressure | Rain* | Wind** | Luminosity | Snow |
|---|---|---|---|---|---|---|---|
| 1778022151 | 21.11° C | 57% | 1010.6 hPa | 0 mm | - | 36 W/m² | - |
| 1778021848 | 21.11° C | 56% | 1010.5 hPa | 0 mm | - | 41 W/m² | - |
| 1778021545 | 21.11° C | 58% | 1010.7 hPa | 0 mm | - | 26 W/m² | - |
| 1778021240 | 21.11° C | 57% | 1011 hPa | 0 mm | - | 30 W/m² | - |
| 1778020938 | 21.11° C | 56% | 1010.9 hPa | 0 mm | - | 21 W/m² | - |
| 1778020635 | 21.11° C | 56% | 1010.9 hPa | 0 mm | - | 17 W/m² | - |
| 1778020331 | 21.11° C | 56% | 1010.9 hPa | 0 mm | - | 18 W/m² | - |
| 1778020027 | 21.67° C | 55% | 1010.8 hPa | 0 mm | - | 22 W/m² | - |
| 1778019723 | 21.67° C | 54% | 1010.9 hPa | 0 mm | - | 24 W/m² | - |
| 1778019421 | 21.67° C | 54% | 1010.5 hPa | 0 mm | - | 25 W/m² | - |
| 1778019117 | 21.67° C | 54% | 1010.9 hPa | 0 mm | - | 33 W/m² | - |
| 1778018815 | 21.67° C | 54% | 1010.9 hPa | 0 mm | - | 30 W/m² | - |
| 1778018512 | 21.67° C | 53% | 1010.7 hPa | 0 mm | - | 38 W/m² | - |
| 1778018210 | 21.67° C | 54% | 1010.6 hPa | 0 mm | - | 44 W/m² | - |
| 1778017908 | 21.67° C | 53% | 1010.7 hPa | 0 mm | - | 65 W/m² | - |
| 1778017605 | 21.67° C | 55% | 1010.6 hPa | 0 mm | - | 89 W/m² | - |
| 1778017302 | 22.22° C | 54% | 1011.1 hPa | 0 mm | - | 91 W/m² | - |
| 1778017000 | 22.22° C | 54% | 1011.1 hPa | 0 mm | - | 102 W/m² | - |
| 1778016696 | 22.78° C | 53% | 1011.3 hPa | 0 mm | - | 89 W/m² | - |
| 1778016392 | 23.33° C | 48% | 1011.2 hPa | 0 mm | - | 76 W/m² | - |
| 1778016090 | 23.33° C | 44% | 1010.9 hPa | 0 mm | - | 39 W/m² | - |
| 1778015787 | 23.89° C | 45% | 1011.4 hPa | 0 mm | - | 47 W/m² | - |
| 1778015484 | 23.89° C | 46% | 1011.3 hPa | 0 mm | - | 50 W/m² | - |
| 1778015181 | 23.89° C | 47% | 1011.3 hPa | 0 mm | - | 73 W/m² | - |
| 1778014878 | 24.44° C | 45% | 1011.4 hPa | 0 mm | - | 95 W/m² | - |
* Rain latest hour (hover to see other rain measurements)
** Current wind speed in m/s (hover to see current wind gust speed)